DECAYED

STARLINK-1628, 46169 (Decayed)

Orbit data source: Space-Track

STARLINK-1628, 46169 was a payload satellite owned by SpaceX/Seattle (US) in LEO that was launched on Tue, 18 Aug 2020 UTC via an FALCON 9 launch vehicle from the Air Force Eastern Test Range (AFETR). Payload-class satellites include a variety of spacecraft equipped with specific instruments for various scientific and technological missions. These include communications satellites like Starlink; space stations such as the ISS; scientific satellites like the Hubble; Earth observation satellites from companies like Planet Labs, Umbra, and HawkEye 360; GPS; miniature CubeSats for education and research; and military/defense satellites.

Not visible in the next 10 days
Identifier
46169, 2020-057BE
Orbit
Decayed
Country
Flag of USUS
Related business
Manufacturer
SpaceX/Seattle
Mission
Decayed Commercial Communications
Bus & Motor
STARLINK, Unknown motor
Mass
260 kg wet, ~248 kg dry
Launch date (UTC)
2020-08-18 (6 years ago)
Launch vehicle
FALCON 9
Launch site
Air Force Eastern Test Range (AFETR)
Object type
Payload
Rocket body
Debris
Shape & HBR
Box + 1 Pan, 10.1 m
Radar Cross Section
13.562 m², Large (>1 m²)

Expand to show TLE details & history
Last TLE update: 10 months ago

TLE from 10 months ago
0 STARLINK-1628
1 46169U 20057BE  25302.55099126  .11839407  12054-4  37836-2 0  9997
2 46169  53.0210  66.3634 0007003 319.3748  40.6769 16.25483041287915
Epoch: 2025-10-29T13:13Z
TLE epoch observation values (Epoch: 2025-10-29T13:13:25.644Z)
Latitude
-0.00002°
Longitude
-170.11598°
Altitude
202.133 km
Speed
7.788 km/s
True Right ascension
04h 25m 27s
True Declination
0° 00' 00"
Sunlit
Object was in full shadow at epoch
Visualization orbit readout
Latitude
Unknown
Longitude
Unknown
Altitude
Unknown
Speed
Unknown
Apparent Right ascension
Unknown
Apparent Declination
Unknown
Sunlit
N/A
Visualization observer readout
Local Sidereal Time
00:05:36
Azimuth
Unknown
Elevation
Unknown
Doppler factor
Unknown
Orbital elements
Apogee altitude
209.607 km
Perigee altitude
200.387 km
Semi-major axis
6,583.134 km
Eccentricity
0.0007
Inclination
53.021°
RAAN
66.3634°
Arg. of periapsis
319.3748°
True anomaly
40.72924°
Mean anomaly
40.6769°
Eccentric anomaly
40.70307°
Mean motion
4.06344 °/min
Orbital period
88.59 mins
BSTAR
0.0037836
Loading maneuver chart data...
Computing Atmospheric mass density...

Documentation

Showing up to 5 results
|